Location: Houston
(29.7630°N, 95.3630°W)
Time: 14:17:41
(UTC-06:00)

Amateur Radio Satellites - All Passes

Search period start: 04 March 2015 13:47
Search period end: 05 March 2015 13:47
Location: Houston, 29.7630°N, 95.3630°W

Satellite Date Start Highest point End Downlink Frequencies (MHz)
Time Altitude Azimuth
SWISSCUBE 04 Mar 13:50:16 13:55:06 81° 102° (ESE) 13:59:55 437.505
BEESAT 04 Mar 13:58:32 14:03:22 89° 273° (W) 14:08:10 436.000
AO-7 04 Mar 14:18:55 14:24:48 23° 62° (ENE) 14:31:01 29.400- 29.500
YUBILEINY 04 Mar 14:24:46 14:27:08 12° 82° (E) 14:30:23 435.215
ITUPSAT 1 04 Mar 14:27:24 14:31:58 43° 286° (WNW) 14:36:29 437.325
HORYU 2 04 Mar 14:35:09 14:38:57 29° 73° (ENE) 14:42:49 437.375
Gurwin Techsat 1B 04 Mar 14:36:18 14:41:31 58° 259° (W) 14:46:46 435.225
ITAMSAT 1 04 Mar 14:53:22 14:57:49 27° 264° (W) 15:02:12 435.822/435.867
VERMONT LUNAR 04 Mar 15:00:32 15:03:23 24° 142° (SE) 15:06:17 437.305
JAS-2 04 Mar 15:04:56 15:08:36 19° 67° (ENE) 15:12:44 435.910
KKS-1 04 Mar 15:14:56 15:19:21 68° 284° (WNW) 15:23:44 437.445
STARS 04 Mar 15:16:38 15:21:02 76° 103° (ESE) 15:25:23 437.465
PHONESAT 2.4 04 Mar 15:19:29 15:21:38 15° 140° (SE) 15:23:52 2401.200-2431.200
ISS 04 Mar 15:20:12 15:22:59 27° 40° (NE) 15:25:48 145.825
AO-7 04 Mar 16:08:45 16:17:02 66° 256° (WSW) 16:25:19 29.400- 29.500
HORYU 2 04 Mar 16:12:36 16:15:40 18° 266° (W) 16:18:34 437.375
YUBILEINY 04 Mar 16:14:16 16:23:00 87° 95° (E) 16:31:49 435.215
BEESAT 3 04 Mar 16:22:46 16:26:47 68° 115° (ESE) 16:30:53 437.485
VERMONT LUNAR 04 Mar 16:37:49 16:41:10 44° 335° (NNW) 16:44:31 437.305
MOZHAYETS 4 04 Mar 16:40:59 16:45:23 42° 98° (E) 16:49:49
JAS-2 04 Mar 16:48:15 16:53:20 42° 263° (W) 16:58:53 435.910
BEESAT 2 04 Mar 16:50:38 16:54:41 63° 298° (WNW) 16:58:48 435.950
PHONESAT 2.4 04 Mar 16:56:12 16:59:49 71° 331° (NNW) 17:03:28 2401.200-2431.200
ISS 04 Mar 16:57:03 16:59:14 17° 232° (SW) 17:01:21 145.825
Cubesat XI-IV 04 Mar 16:57:30 17:01:09 20° 69° (ENE) 17:05:01 437.490
M-CUBED/EXP-1 PRIME 04 Mar 16:57:52 17:02:20 89° 266° (W) 17:07:04 437.505
AUBIESAT-1 04 Mar 16:58:02 17:02:31 81° 108° (ESE) 17:07:14 437.475
AIST 2 04 Mar 16:59:42 17:03:47 50° 114° (ESE) 17:07:57 435.215
CUTE-I 04 Mar 17:05:22 17:09:27 23° 70° (ENE) 17:13:42 437.470
STRAND 1 04 Mar 18:07:21 18:09:51 14° 92° (E) 18:12:41 437.568
YUBILEINY 04 Mar 18:16:33 18:21:08 14° 294° (WNW) 18:25:00 435.215
VERMONT LUNAR 04 Mar 18:17:22 18:19:37 16° 351° (N) 18:21:51 437.305
MOZHAYETS 4 04 Mar 18:19:48 18:22:19 14° 290° (WNW) 18:24:35
AIST 1 04 Mar 18:34:48 18:39:12 78° 265° (W) 18:43:33
PRISM 04 Mar 18:35:34 18:39:43 54° 100° (E) 18:43:51 437.425
PHONESAT 2.4 04 Mar 18:35:56 18:38:41 20° 347° (NNW) 18:41:25 2401.200-2431.200
Cubesat XI-IV 04 Mar 18:35:58 18:41:00 40° 261° (W) 18:46:01 437.490
AIST 2 04 Mar 18:40:54 18:42:44 12° 310° (NW) 18:44:23 435.215
CUTE-I 04 Mar 18:44:32 18:49:22 33° 263° (W) 18:54:10 437.470
CUBESAT XI-V 04 Mar 18:45:50 18:50:33 73° 100° (E) 18:55:12 437.345
O/OREOS (USA 219) 04 Mar 18:47:26 18:51:29 31° 66° (ENE) 18:55:32 437.305
PCSat 04 Mar 18:49:12 18:52:03 15° 106° (ESE) 18:55:13 145.827
HO-68 04 Mar 19:03:27 19:07:48 18° 64° (ENE) 19:12:32 435.675
STRAND 1 04 Mar 19:44:25 19:49:22 48° 286° (WNW) 19:54:16 437.568
AAUSAT CUBESAT 2 04 Mar 19:51:56 19:53:48 13° 71° (ENE) 19:55:53 437.432
COMPASS 1 04 Mar 19:55:27 19:58:08 17° 72° (ENE) 20:00:58 437.405
VERMONT LUNAR 04 Mar 19:56:16 19:58:24 15° 8° (N) 20:00:33 437.305
GOMX 1 04 Mar 19:58:18 20:03:17 40° 75° (ENE) 20:08:07 467.674
BRITE-PL 04 Mar 20:04:11 20:09:49 71° 77° (ENE) 20:15:18 437.365/2234.400
CINEMA 3 04 Mar 20:15:36 20:18:54 19° 73° (ENE) 20:22:16 145.822/145.860
PHONESAT 2.4 04 Mar 20:15:49 20:18:00 15° 4° (N) 20:20:13 2401.200-2431.200
DOVE 4 04 Mar 20:22:30 20:27:27 48° 76° (ENE) 20:32:14 437.250
CUBEBUG 2 04 Mar 20:23:22 20:24:30 11° 71° (ENE) 20:25:56 437.445
SEEDS 04 Mar 20:24:44 20:28:47 52° 76° (ENE) 20:32:52 437.485
O/OREOS (USA 219) 04 Mar 20:27:35 20:30:41 17° 258° (WSW) 20:33:35 437.305
PCSat 04 Mar 20:29:51 20:35:06 51° 297° (WNW) 20:40:23 145.827
GONETS M04 04 Mar 20:30:22 20:36:01 21° 85° (E) 20:42:11
CANX-2 04 Mar 20:31:27 20:35:39 89° 118° (ESE) 20:39:53 2200.000
DELFI C3 04 Mar 20:45:02 20:47:57 20° 73° (ENE) 20:50:59 145.870
HO-68 04 Mar 20:47:53 20:54:58 68° 257° (WSW) 21:02:06 435.675
FUNcube-1 04 Mar 20:49:46 20:52:05 15° 72° (ENE) 20:54:35 145.935
CUTE 1.7 + AOD 2 04 Mar 20:49:47 20:53:56 58° 260° (W) 20:58:05 437.475
ZACube-1 04 Mar 20:51:37 20:54:11 16° 72° (ENE) 20:56:54 437.345
UKube-1 04 Mar 20:54:52 20:57:27 16° 71° (ENE) 21:00:13 .
UWE-3 04 Mar 21:14:21 21:18:28 38° 75° (ENE) 21:22:32 435.000/436.395/437.385
AAUSAT CUBESAT 2 04 Mar 21:25:23 21:29:11 35° 262° (W) 21:32:58 437.432
COMPASS 1 04 Mar 21:30:10 21:33:41 26° 264° (W) 21:37:09 437.405
VERMONT LUNAR 04 Mar 21:33:37 21:36:54 38° 24° (NNE) 21:40:11 437.305
Oscar 11 04 Mar 21:34:13 21:38:29 66° 259° (W) 21:42:45 145.826/435.025
GOMX 1 04 Mar 21:37:34 21:41:29 19° 266° (W) 21:45:06 467.674
RS-15 04 Mar 21:37:44 21:46:47 33° 107° (ESE) 21:56:10 29.354- 29.394
50 SAT 04 Mar 21:44:24 21:47:23 21° 73° (ENE) 21:50:27 437.505
BRITE-PL 04 Mar 21:46:50 21:48:46 11° 270° (W) 21:50:14 437.365/2234.400
CINEMA 3 04 Mar 21:51:37 21:55:57 31° 263° (W) 22:00:03 145.822/145.860
TIGRISAT 04 Mar 21:53:40 21:55:20 12° 93° (E) 21:57:18 435.000
PHONESAT 2.4 04 Mar 21:53:58 21:57:11 29° 20° (NNE) 22:00:25 2401.200-2431.200
CUBEBUG 2 04 Mar 21:56:28 22:00:55 49° 261° (W) 22:05:11 437.445
DX 1 04 Mar 22:02:22 22:06:44 68° 259° (WSW) 22:11:07 434.975-435.025
DOVE 4 04 Mar 22:02:31 22:05:25 14° 267° (W) 22:07:58 437.250
ANTELSAT 04 Mar 22:07:19 22:10:26 20° 95° (E) 22:13:43 437.575/2403.000
HUMSAT D 04 Mar 22:10:40 22:14:52 76° 78° (ENE) 22:19:02 437.325/437.525
CUBEBUG 1 04 Mar 22:12:56 22:16:13 21° 72° (ENE) 22:19:38 437.445
AISAT 04 Mar 22:16:22 22:20:48 63° 77° (ENE) 22:25:16 437.250
DELFI C3 04 Mar 22:19:57 22:23:04 21° 265° (W) 22:26:06 145.870
NANOSAT C BR1 04 Mar 22:23:19 22:25:35 15° 93° (E) 22:28:04 145.865
GONETS M04 04 Mar 22:23:41 22:32:17 63° 279° (W) 22:40:52
FUNcube-1 04 Mar 22:24:11 22:28:13 34° 262° (W) 22:32:08 145.935
VELOX 1 04 Mar 22:24:42 22:29:10 78° 77° (ENE) 22:33:40 145.980
ZACube-1 04 Mar 22:26:23 22:30:21 32° 262° (W) 22:34:13 437.345
UKube-1 04 Mar 22:29:27 22:33:23 32° 262° (W) 22:37:17 .
DANDE 04 Mar 22:47:00 22:51:25 19° 95° (E) 22:55:30 436.750
ESTCUBE 1 04 Mar 22:49:13 22:53:40 66° 76° (ENE) 22:58:12 437.505/2401.250
UWE-3 04 Mar 22:52:54 22:55:11 13° 267° (W) 22:57:10 435.000/436.395/437.385
BUGSAT 1 04 Mar 22:53:48 22:57:11 25° 96° (E) 23:00:36 437.445
QB50P1 04 Mar 22:55:23 22:59:19 39° 98° (E) 23:03:16 145.935-145.965
QB50P2 04 Mar 23:00:00 23:04:03 46° 99° (E) 23:08:07 145.880/145.840
CUSAT 1 04 Mar 23:01:48 23:07:26 31° 97° (E) 23:12:01 437.405
UNISAT 6 04 Mar 23:04:06 23:08:26 78° 283° (WNW) 23:12:49 437.425
VERMONT LUNAR 04 Mar 23:11:41 23:14:44 28° 217° (SW) 23:17:44 437.305
DUCHIFAT 1 04 Mar 23:12:51 23:17:02 66° 101° (E) 23:21:11 145.980
JUGNU 04 Mar 23:15:34 23:18:13 13° 162° (SSE) 23:21:01 437.505
50 SAT 04 Mar 23:19:21 23:22:20 19° 265° (W) 23:25:10 437.505
TIGRISAT 04 Mar 23:28:16 23:32:18 39° 285° (WNW) 23:36:21 435.000
PHONESAT 2.4 04 Mar 23:32:15 23:35:44 48° 214° (SW) 23:39:12 2401.200-2431.200
POPSAT HIP 1 04 Mar 23:35:13 23:39:23 61° 284° (WNW) 23:43:32 437.405
POLYITAN 1 04 Mar 23:35:57 23:40:06 58° 284° (WNW) 23:44:13 437.675
ANTELSAT 04 Mar 23:43:37 23:47:13 25° 287° (WNW) 23:50:47 437.575/2403.000
RS-15 04 Mar 23:48:03 23:58:43 55° 303° (WNW) 00:09:23 29.354- 29.394
CUBEBUG 1 04 Mar 23:48:46 23:52:28 25° 264° (W) 23:56:07 437.445
NANOSAT C BR1 04 Mar 23:57:49 00:01:34 31° 286° (WNW) 00:05:14 145.865
TISAT 1 05 Mar 00:05:46 00:10:03 81° 258° (WSW) 00:14:21 437.305
SPROUT 05 Mar 00:10:35 00:14:53 63° 259° (W) 00:19:11 437.525
DANDE 05 Mar 00:27:52 00:34:49 50° 278° (W) 00:40:06 436.750
BUGSAT 1 05 Mar 00:29:42 00:32:32 18° 288° (WNW) 00:35:11 437.445
QB50P1 05 Mar 00:33:02 00:34:55 12° 290° (WNW) 00:36:34 145.935-145.965
QB50P2 05 Mar 00:38:35 00:39:37 11° 290° (WNW) 00:40:22 145.880/145.840
SO-50 05 Mar 00:43:53 00:48:22 72° 116° (ESE) 00:53:02 436.795
CUSAT 1 05 Mar 00:44:51 00:50:13 26° 280° (W) 00:54:25 437.405
SWISSCUBE 05 Mar 00:51:00 00:55:32 45° 74° (ENE) 01:00:07 437.505
BEESAT 05 Mar 00:59:06 01:03:42 51° 75° (ENE) 01:08:21 436.000
JUGNU 05 Mar 01:02:00 01:06:44 25° 170° (S) 01:11:32 437.505
SRMSAT 05 Mar 01:09:28 01:12:54 16° 163° (SSE) 01:16:26 437.500
BEESAT 2 05 Mar 01:17:32 01:19:30 13° 51° (NE) 01:21:39 435.950
ITUPSAT 1 05 Mar 01:27:53 01:32:39 75° 259° (W) 01:37:28 437.325
Oscar 19 05 Mar 01:28:25 01:33:21 49° 99° (E) 01:38:20 437.125/150
ITAMSAT 1 05 Mar 01:34:01 01:36:53 15° 93° (E) 01:40:02 435.822/435.867
KKS-1 05 Mar 02:07:05 02:11:24 50° 75° (ENE) 02:15:45 437.445
STARS 05 Mar 02:08:04 02:11:56 31° 73° (ENE) 02:15:52 437.465
RS-15 05 Mar 02:09:53 02:14:32 13° 331° (NNW) 02:18:33 29.354- 29.394
BEESAT 3 05 Mar 02:25:25 02:29:32 81° 244° (WSW) 02:33:34 437.485
SO-50 05 Mar 02:28:20 02:29:32 11° 313° (NW) 02:30:30 436.795
SWISSCUBE 05 Mar 02:31:19 02:33:41 13° 268° (W) 02:35:46 437.505
YUBILEINY 05 Mar 02:32:44 02:40:20 33° 75° (ENE) 02:48:07 435.215
BEESAT 05 Mar 02:40:11 02:41:54 11° 269° (W) 02:43:16 436.000
JUGNU 05 Mar 02:50:08 02:55:19 32° 180° (S) 03:00:32 437.505
BEESAT 2 05 Mar 02:54:02 02:57:56 41° 247° (WSW) 03:01:44 435.950
SRMSAT 05 Mar 02:56:36 03:01:36 28° 172° (S) 03:06:36 437.500
Gurwin Techsat 1B 05 Mar 02:58:35 03:03:55 87° 288° (WNW) 03:09:15 435.225
AIST 2 05 Mar 03:05:29 03:09:44 82° 63° (ENE) 03:13:53 435.215
Oscar 19 05 Mar 03:09:25 03:12:22 15° 291° (WNW) 03:15:03 437.125/150
ITAMSAT 1 05 Mar 03:11:41 03:16:40 46° 286° (WNW) 03:21:35 435.822/435.867
MOZHAYETS 4 05 Mar 03:38:00 03:41:16 20° 72° (ENE) 03:44:40
AUBIESAT-1 05 Mar 03:42:25 03:45:21 31° 70° (ENE) 03:48:24 437.475
M-CUBED/EXP-1 PRIME 05 Mar 03:42:35 03:45:38 37° 71° (ENE) 03:48:48 437.505
STARS 05 Mar 03:45:31 03:48:30 17° 266° (W) 03:51:16 437.465
KKS-1 05 Mar 03:47:31 03:48:23 10° 269° (W) 03:48:54 437.445
JAS-2 05 Mar 04:02:10 04:09:15 40° 97° (E) 04:16:32 435.910
HORYU 2 05 Mar 04:08:22 04:12:44 56° 284° (WNW) 04:17:06 437.375
AO-7 05 Mar 04:17:09 04:25:21 64° 103° (ESE) 04:33:33 29.400- 29.500
YUBILEINY 05 Mar 04:29:05 04:37:18 43° 270° (W) 04:45:21 435.215
JUGNU 05 Mar 04:39:02 04:43:55 26° 189° (S) 04:48:47 437.505
SRMSAT 05 Mar 04:45:06 04:50:22 32° 182° (S) 04:55:38 437.500
MOZHAYETS 4 05 Mar 05:14:26 05:18:22 28° 264° (W) 05:22:14
STRAND 1 05 Mar 05:18:47 05:20:21 12° 67° (ENE) 05:22:15 437.568
PRISM 05 Mar 05:21:17 05:24:02 18° 71° (ENE) 05:26:57 437.425
Cubesat XI-IV 05 Mar 05:22:06 05:23:54 12° 91° (E) 05:26:06 437.490
PCSat 05 Mar 05:23:57 05:28:51 35° 60° (ENE) 05:33:48 145.827
CUTE-I 05 Mar 05:29:25 05:32:11 15° 92° (E) 05:35:15 437.470
CUBESAT XI-V 05 Mar 05:43:27 05:47:39 35° 74° (ENE) 05:51:57 437.345
JAS-2 05 Mar 05:47:14 05:54:08 37° 289° (WNW) 06:01:02 435.910
AO-7 05 Mar 06:11:22 06:17:37 23° 297° (WNW) 06:23:31 29.400- 29.500
ISS 05 Mar 06:19:41 06:21:22 14° 127° (SE) 06:23:10 145.825
JUGNU 05 Mar 06:29:19 06:32:27 14° 197° (SSW) 06:35:29 437.505
SRMSAT 05 Mar 06:34:21 06:39:07 24° 191° (S) 06:43:51 437.500
RS-15 05 Mar 06:45:07 06:53:40 24° 43° (NE) 07:02:59 29.354- 29.394
STRAND 1 05 Mar 06:54:00 06:59:05 64° 259° (W) 07:04:12 437.568
PRISM 05 Mar 06:55:54 06:59:23 25° 263° (W) 07:02:50 437.425
AIST 1 05 Mar 06:57:47 07:02:07 83° 96° (E) 07:06:31
Cubesat XI-IV 05 Mar 06:59:10 07:04:28 60° 286° (WNW) 07:09:42 437.490
CUTE-I 05 Mar 07:07:25 07:12:36 50° 286° (WNW) 07:17:43 437.470
PCSat 05 Mar 07:07:51 07:12:06 23° 253° (WSW) 07:16:10 145.827
CUBESAT XI-V 05 Mar 07:22:09 07:25:14 17° 267° (W) 07:28:08 437.345
ISS 05 Mar 07:54:38 07:57:33 32° 318° (NW) 08:00:29 145.825
GOMX 1 05 Mar 08:08:23 08:10:33 14° 92° (E) 08:12:54 467.674
BRITE-PL 05 Mar 08:16:42 08:20:30 31° 96° (E) 08:24:14 437.365/2234.400
SEEDS 05 Mar 08:16:43 08:18:56 14° 93° (E) 08:21:23 437.485
HO-68 05 Mar 08:22:41 08:28:58 33° 97° (E) 08:35:22 435.675
CANX-2 05 Mar 08:23:27 08:26:54 24° 96° (E) 08:30:26 2200.000
SRMSAT 05 Mar 08:25:25 08:27:48 12° 199° (SSW) 08:30:02 437.500
DOVE 4 05 Mar 08:29:22 08:32:01 17° 94° (E) 08:34:49 437.250
CUTE 1.7 + AOD 2 05 Mar 08:41:14 08:45:09 36° 98° (E) 08:49:08 437.475
GONETS M04 05 Mar 08:41:23 08:49:46 50° 79° (E) 08:58:16
O/OREOS (USA 219) 05 Mar 08:52:59 08:57:30 72° 289° (WNW) 09:02:05 437.305
RS-15 05 Mar 08:56:04 09:07:42 86° 245° (WSW) 09:19:50 29.354- 29.394
UWE-3 05 Mar 09:12:30 09:13:45 11° 92° (E) 09:15:16 435.000/436.395/437.385
AAUSAT CUBESAT 2 05 Mar 09:14:12 09:18:20 55° 100° (E) 09:22:28 437.432
COMPASS 1 05 Mar 09:19:01 09:23:14 77° 101° (E) 09:27:27 437.405
SO-50 05 Mar 09:22:30 09:25:18 15° 50° (NE) 09:28:18 436.795
Oscar 11 05 Mar 09:27:49 09:31:45 34° 98° (E) 09:35:44 145.826/435.025
QB50P1 05 Mar 09:43:56 09:46:12 15° 71° (ENE) 09:48:40 145.935-145.965
GOMX 1 05 Mar 09:45:08 09:48:52 30° 286° (WNW) 09:52:28 467.674
QB50P2 05 Mar 09:48:23 09:51:04 17° 72° (ENE) 09:53:56 145.880/145.840
SEEDS 05 Mar 09:51:04 09:54:53 32° 286° (WNW) 09:58:39 437.485
CINEMA 3 05 Mar 09:52:18 09:56:27 81° 282° (WNW) 10:00:38 145.822/145.860
CUBEBUG 2 05 Mar 09:53:40 09:57:43 51° 100° (E) 10:01:49 437.445
BRITE-PL 05 Mar 09:56:16 09:58:50 15° 290° (WNW) 10:01:08 437.365/2234.400
DX 1 05 Mar 09:57:10 10:01:05 32° 98° (E) 10:04:59 434.975-435.025
UNISAT 6 05 Mar 09:57:24 10:01:34 43° 75° (ENE) 10:05:42 437.425
CANX-2 05 Mar 09:59:33 10:02:44 20° 287° (WNW) 10:05:47 2200.000
DUCHIFAT 1 05 Mar 10:00:12 10:03:31 23° 73° (ENE) 10:06:55 145.980
HUMSAT D 05 Mar 10:01:57 10:04:50 19° 95° (E) 10:07:52 437.325/437.525
DELFI C3 05 Mar 10:04:43 10:08:50 82° 101° (ESE) 10:12:55 145.870
DOVE 4 05 Mar 10:06:24 10:09:52 25° 287° (WNW) 10:13:14 437.250
HO-68 05 Mar 10:10:11 10:16:41 37° 291° (WNW) 10:23:04 435.675
AISAT 05 Mar 10:14:25 10:17:33 20° 95° (E) 10:20:50 437.250
FUNcube-1 05 Mar 10:18:15 10:22:24 68° 101° (E) 10:26:35 145.935
CUTE 1.7 + AOD 2 05 Mar 10:18:37 10:20:49 14° 289° (WNW) 10:22:49 437.475
ZACube-1 05 Mar 10:20:35 10:24:45 75° 101° (E) 10:28:57 437.345
TIGRISAT 05 Mar 10:20:46 10:25:12 84° 79° (ENE) 10:29:32 435.000
POPSAT HIP 1 05 Mar 10:22:05 10:26:09 43° 75° (ENE) 10:30:14 437.405
VELOX 1 05 Mar 10:22:13 10:25:44 24° 96° (E) 10:29:20 145.980
UKube-1 05 Mar 10:22:39 10:26:59 66° 101° (E) 10:31:16 .
POLYITAN 1 05 Mar 10:23:03 10:27:08 46° 75° (ENE) 10:31:16 437.675
ANTELSAT 05 Mar 10:36:05 10:40:27 60° 259° (W) 10:44:45 437.575/2403.000
GONETS M04 05 Mar 10:39:06 10:46:16 28° 273° (W) 10:53:07
NANOSAT C BR1 05 Mar 10:43:50 10:48:08 85° 78° (ENE) 10:52:25 145.865
UWE-3 05 Mar 10:46:38 10:50:31 38° 285° (WNW) 10:54:25 435.000/436.395/437.385
ESTCUBE 1 05 Mar 10:48:49 10:52:21 23° 95° (E) 10:55:59 437.505/2401.250
SO-50 05 Mar 11:01:25 11:06:15 54° 245° (WSW) 11:10:58 436.795
50 SAT 05 Mar 11:02:32 11:06:30 83° 101° (ESE) 11:10:29 437.505
Oscar 11 05 Mar 11:05:09 11:07:41 15° 289° (WNW) 11:10:03 145.826/435.025
BUGSAT 1 05 Mar 11:12:22 11:16:34 57° 260° (W) 11:20:46 437.445
RS-15 05 Mar 11:12:24 11:19:13 16° 256° (WSW) 11:25:01 29.354- 29.394
DANDE 05 Mar 11:17:11 11:19:47 83° 78° (ENE) 11:22:41 436.750
QB50P1 05 Mar 11:17:55 11:21:51 34° 262° (W) 11:25:44 145.935-145.965
QB50P2 05 Mar 11:23:01 11:26:48 29° 263° (W) 11:30:31 145.880/145.840
CUSAT 1 05 Mar 11:29:33 11:32:00 32° 263° (W) 11:34:46 437.405
DX 1 05 Mar 11:34:22 11:37:06 16° 290° (WNW) 11:39:38 434.975-435.025
DUCHIFAT 1 05 Mar 11:35:57 11:39:17 21° 265° (W) 11:42:31 145.980
UNISAT 6 05 Mar 11:36:58 11:38:36 11° 268° (W) 11:39:55 437.425
HUMSAT D 05 Mar 11:37:16 11:40:35 23° 287° (WNW) 11:43:52 437.325/437.525
CUBEBUG 1 05 Mar 11:42:59 11:47:23 84° 283° (WNW) 11:51:44 437.445
AISAT 05 Mar 11:50:26 11:54:10 26° 288° (WNW) 11:57:49 437.250
TISAT 1 05 Mar 11:57:16 12:00:41 25° 96° (E) 12:04:11 437.305
VELOX 1 05 Mar 11:58:45 12:02:13 22° 288° (WNW) 12:05:34 145.980
POPSAT HIP 1 05 Mar 12:01:01 12:02:18 11° 268° (W) 12:03:16 437.405
POLYITAN 1 05 Mar 12:02:35 12:03:22 10° 269° (W) 12:03:49 437.675
SPROUT 05 Mar 12:03:41 12:07:35 35° 98° (E) 12:11:30 437.525
ESTCUBE 1 05 Mar 12:25:27 12:29:10 24° 288° (WNW) 12:32:47 437.505/2401.250
Oscar 19 05 Mar 12:39:28 12:44:09 38° 73° (ENE) 12:48:55 437.125/150
ITAMSAT 1 05 Mar 12:47:03 12:49:24 14° 68° (ENE) 12:52:04 435.822/435.867
SWISSCUBE 05 Mar 12:58:22 13:01:45 20° 94° (E) 13:05:18 437.505
BEESAT 05 Mar 13:06:12 13:09:51 22° 95° (E) 13:13:37 436.000
TISAT 1 05 Mar 13:33:21 13:36:22 19° 288° (WNW) 13:39:16 437.305
ITUPSAT 1 05 Mar 13:34:46 13:39:24 46° 100° (E) 13:44:01 437.325
SPROUT 05 Mar 13:41:02 13:43:25 14° 289° (WNW) 13:45:36 437.525
